ARG1710 SABE-SACO

Flight info

Callsign ARG1710
Flight time N/A
Altitude 34000
Route ATOVO4B ATOVO UW5 ASISA ASISA1Q
Aircraft B737/M-SDE2E3FGHIRWXY/LB1

Departure

Time N/A
Airport Aeroparque Jorge Newbery (SABE)

Arrival

Time 2026-04-28 19:45
Airport Ingeniero Aeronáutico Ambrosio L.V. Taravella International Airport (SACO)
Time Latitude Longitude Altitude Speed Heading
2026-04-28 19:23 -33.38650 -60.11148 34000 ft 414 kts 310°
2026-04-28 19:23 -33.36796 -60.13750 34000 ft 414 kts 310°
2026-04-28 19:23 -33.21543 -60.35092 33999 ft 413 kts 310°
2026-04-28 19:24 -32.99160 -60.66185 34000 ft 414 kts 311°
2026-04-28 19:24 -32.78437 -60.95125 34000 ft 414 kts 309°
2026-04-28 19:25 -32.56782 -61.26861 33999 ft 413 kts 310°
2026-04-28 19:25 -32.34504 -61.57989 33999 ft 413 kts 309°
2026-04-28 19:26 -32.12487 -61.89283 34000 ft 413 kts 310°
2026-04-28 19:26 -32.09366 -61.94065 33996 ft 413 kts 297°
2026-04-28 19:26 -32.07016 -62.02974 34006 ft 413 kts 283°
2026-04-28 19:27 -32.02517 -62.22599 33753 ft 414 kts 290°
2026-04-28 19:27 -31.95074 -62.40442 32523 ft 405 kts 299°
2026-04-28 19:27 -31.87674 -62.58172 31615 ft 399 kts 290°
2026-04-28 19:27 -31.83547 -62.73889 30683 ft 395 kts 286°
2026-04-28 19:28 -31.77868 -62.92191 30198 ft 402 kts 295°
2026-04-28 19:28 -31.70229 -63.09851 29688 ft 409 kts 295°
2026-04-28 19:28 -31.63777 -63.28587 29158 ft 417 kts 288°
2026-04-28 19:28 -31.58019 -63.47989 28627 ft 425 kts 291°
2026-04-28 19:29 -31.50622 -63.67108 28082 ft 433 kts 296°
2026-04-28 19:29 -31.49697 -63.69375 28018 ft 438 kts 295°
2026-04-28 19:29 -31.48092 -63.73804 27883 ft 444 kts 292°
2026-04-28 19:29 -31.46936 -63.77120 27783 ft 436 kts 292°
2026-04-28 19:30 -31.45787 -63.80381 27696 ft 427 kts 291°
2026-04-28 19:30 -31.44829 -63.83634 27272 ft 428 kts 286°
2026-04-28 19:30 -31.44059 -63.87054 26402 ft 439 kts 282°
2026-04-28 19:30 -31.43608 -63.90610 25539 ft 448 kts 276°
2026-04-28 19:31 -31.43325 -63.94226 24976 ft 448 kts 275°
2026-04-28 19:31 -31.43008 -63.97840 24523 ft 446 kts 276°
2026-04-28 19:31 -31.42660 -64.01417 24053 ft 445 kts 276°
2026-04-28 19:31 -31.42308 -64.05026 23564 ft 444 kts 276°
2026-04-28 19:32 -31.41962 -64.08594 22955 ft 446 kts 276°
2026-04-28 19:32 -31.41584 -64.12195 22418 ft 446 kts 279°
2026-04-28 19:32 -31.40594 -64.15649 21704 ft 449 kts 298°
2026-04-28 19:32 -31.38669 -64.18471 21032 ft 450 kts 319°
2026-04-28 19:33 -31.35992 -64.20345 20268 ft 453 kts 339°
2026-04-28 19:33 -31.32900 -64.21061 19182 ft 463 kts 358°
2026-04-28 19:33 -31.29735 -64.20573 18364 ft 464 kts 16°
2026-04-28 19:33 -31.26812 -64.19022 17755 ft 460 kts 32°
2026-04-28 19:34 -31.24396 -64.16637 17144 ft 457 kts 47°
2026-04-28 19:34 -31.22465 -64.13710 16526 ft 455 kts 58°
2026-04-28 19:34 -31.21210 -64.10332 15884 ft 454 kts 76°
2026-04-28 19:34 -31.20881 -64.06702 15280 ft 451 kts 90°
2026-04-28 19:35 -31.21094 -64.03068 14660 ft 447 kts 98°
2026-04-28 19:35 -31.21993 -63.99682 14003 ft 433 kts 117°
2026-04-28 19:35 -31.23713 -63.96997 13479 ft 400 kts 133°
2026-04-28 19:35 -31.25596 -63.94776 12967 ft 373 kts 137°
2026-04-28 19:36 -31.27599 -63.93007 12457 ft 351 kts 150°
2026-04-28 19:36 -31.29747 -63.91855 11961 ft 332 kts 158°
2026-04-28 19:36 -31.31835 -63.90834 11456 ft 317 kts 156°
2026-04-28 19:36 -31.33798 -63.89825 10957 ft 304 kts 156°
2026-04-28 19:37 -31.35697 -63.88851 10466 ft 293 kts 157°
2026-04-28 19:37 -31.36976 -63.88339 10142 ft 286 kts 168°
2026-04-28 19:37 -31.39530 -63.88457 9509 ft 273 kts 197°
2026-04-28 19:37 -31.41198 -63.89413 9035 ft 266 kts 216°
2026-04-28 19:38 -31.42472 -63.90965 8503 ft 268 kts 238°
2026-04-28 19:38 -31.43179 -63.92936 7953 ft 264 kts 257°
2026-04-28 19:38 -31.43301 -63.95058 7366 ft 259 kts 275°
2026-04-28 19:38 -31.43093 -63.97107 6806 ft 255 kts 277°
2026-04-28 19:39 -31.42895 -63.99160 6240 ft 251 kts 276°
2026-04-28 19:39 -31.42703 -64.01171 5723 ft 245 kts 276°
2026-04-28 19:39 -31.42513 -64.03122 5354 ft 235 kts 276°
2026-04-28 19:39 -31.42332 -64.04974 4977 ft 227 kts 276°
2026-04-28 19:40 -31.42153 -64.06798 4467 ft 226 kts 276°
2026-04-28 19:40 -31.41977 -64.08588 4222 ft 211 kts 276°
2026-04-28 19:40 -31.41816 -64.10225 4143 ft 190 kts 276°
2026-04-28 19:40 -31.41669 -64.11708 3964 ft 183 kts 276°
2026-04-28 19:41 -31.41523 -64.13185 3576 ft 182 kts 276°
2026-04-28 19:41 -31.41381 -64.14622 3480 ft 178 kts 276°
2026-04-28 19:41 -31.41238 -64.16068 3355 ft 169 kts 276°
2026-04-28 19:41 -31.41109 -64.17369 3215 ft 160 kts 276°
2026-04-28 19:42 -31.40982 -64.18652 3062 ft 157 kts 276°
2026-04-28 19:42 -31.40767 -64.19888 2936 ft 153 kts 297°
2026-04-28 19:42 -31.39997 -64.20606 2885 ft 144 kts 342°
2026-04-28 19:42 -31.39335 -64.20715 2872 ft 144 kts
2026-04-28 19:43 -31.38012 -64.20722 2895 ft 143 kts 358°
2026-04-28 19:43 -31.37044 -64.20747 2730 ft 132 kts 358°
2026-04-28 19:43 -31.36136 -64.20762 2421 ft 131 kts 359°
2026-04-28 19:43 -31.35218 -64.20784 2300 ft 134 kts 359°
2026-04-28 19:44 -31.34265 -64.20776 2092 ft 137 kts 360°
2026-04-28 19:44 -31.33327 -64.20805 1817 ft 133 kts 358°
2026-04-28 19:44 -31.32443 -64.20819 1623 ft 124 kts 360°
2026-04-28 19:44 -31.31723 -64.20820 1613 ft 68 kts
2026-04-28 19:45 -31.31524 -64.20843 1613 ft 16 kts 322°
2026-04-28 19:45 -31.31464 -64.20993 1613 ft 21 kts 266°
2026-04-28 19:45 -31.31540 -64.21097 1613 ft 14 kts 231°
2026-04-28 19:45 -31.31550 -64.21175 1613 ft 2 kts 268°
2026-04-28 19:46 -31.31551 -64.21179 1613 ft 0 kts 268°